FW2048 Weather Reports


time (UTC)temp
C
wind
direction
speed
KPH
gust
KPH
rain 1hr
cm
rain 24hr
cm
rain mn
cm
humidity
%
barometer
mb
20260510201548 21 0 0.0 0.0 0.00 0.00 0.00 54 1013.1
20260510200043 21 0 0.0 0.0 0.00 0.00 0.00 57 1013.1
20260510194543 21 0 0.0 0.0 0.00 0.00 0.00 55 1012.9
20260510193048 21 0 0.0 0.0 0.00 0.00 0.00 55 1013.0
20260510191538 21 0 0.0 0.0 0.00 0.00 0.00 59 1012.9
20260510190044 21 0 0.0 0.0 0.00 0.00 0.00 59 1013.0
20260510184546 21 0 0.0 0.0 0.00 0.00 0.00 59 1012.9
20260510183043 21 0 0.0 0.0 0.00 0.00 0.00 60 1012.7
20260510181600 21 0 0.0 0.0 0.00 0.00 0.00 59 1012.9
20260510174544 21 0 0.0 0.0 0.00 0.00 0.00 64 1012.7
20260510173043 21 0 0.0 0.0 0.00 0.00 0.00 62 1012.7
20260510171547 21 0 0.0 0.0 0.00 0.00 0.00 63 1012.4
20260510170039 21 0 0.0 0.0 0.00 0.00 0.00 64 1012.4
20260510164539 20 0 0.0 0.0 0.00 0.00 0.00 65 1012.4
20260510163038 21 0 0.0 0.0 0.00 0.00 0.00 66 1012.2
20260510161545 20 0 0.0 0.0 0.00 0.00 0.00 65 1012.2
20260510160041 20 0 0.0 0.0 0.00 0.00 0.00 67 1012.2
20260510154538 19 0 0.0 0.0 0.00 0.00 0.00 66 1012.2
20260510153040 19 0 0.0 0.0 0.00 0.00 0.00 67 1012.2
20260510151542 19 0 0.0 0.0 0.00 0.00 0.00 68 1012.2
20260510150054 19 0 0.0 0.0 0.00 0.00 0.00 69 1012.2
20260510144544 18 0 0.0 0.0 0.00 0.00 0.00 72 1011.9
20260510143043 19 0 0.0 0.0 0.00 0.00 0.00 74 1011.7
20260510141542 18 0 0.0 0.0 0.00 0.00 0.00 73 1011.4
20260510140042 17 0 0.0 0.0 0.00 0.00 0.00 77 1011.2
20260510134538 17 0 0.0 0.0 0.00 0.00 0.00 76 1011.0
20260510133045 17 0 0.0 0.0 0.00 0.00 0.00 75 1010.9
20260510131544 17 0 0.0 0.0 0.00 0.00 0.00 74 1010.8
20260510130042 17 0 0.0 0.0 0.00 0.00 0.00 74 1010.3
20260510124539 17 0 0.0 0.0 0.00 0.00 0.00 74 1010.4
20260510123046 16 0 0.0 0.0 0.00 0.00 0.00 78 1010.3
20260510121545 15 0 0.0 0.0 0.00 0.00 0.00 83 1010.4
20260510120044 15 0 0.0 0.0 0.00 0.00 0.00 84 1010.1
20260510114550 14 0 0.0 0.0 0.00 0.00 0.00 83 1009.9
20260510113041 14 0 0.0 0.0 0.00 0.00 0.00 83 1009.8
20260510111540 15 0 0.0 0.0 0.00 0.00 0.00 82 1009.8
20260510110046 14 0 0.0 0.0 0.00 0.00 0.00 81 1009.7
20260510104547 15 0 0.0 0.0 0.00 0.00 0.00 79 1009.5
20260510103045 15 0 0.0 0.0 0.00 0.00 0.00 78 1009.2
20260510101544 14 0 0.0 0.0 0.00 0.00 0.00 78 1009.0
20260510100045 14 0 0.0 0.0 0.00 0.00 0.00 77 1008.8
20260510094546 14 0 0.0 0.0 0.00 0.00 0.00 78 1008.6
20260510093059 14 0 0.0 0.0 0.00 0.00 0.00 79 1008.5
20260510091545 14 0 0.0 0.0 0.00 0.00 0.00 78 1008.6
20260510090053 15 0 0.0 0.0 0.00 0.00 0.00 76 1008.7
20260510084542 15 0 0.0 0.0 0.00 0.00 0.00 75 1008.7
20260510083051 14 0 0.0 0.0 0.00 0.00 0.00 79 1008.8
20260510081542 14 0 0.0 0.0 0.00 0.00 0.00 80 1008.3
20260510080046 13 0 0.0 0.0 0.00 0.00 0.00 83 1008.1
20260510074547 13 0 0.0 0.0 0.00 0.00 0.00 82 1007.8
20260510073052 13 0 0.0 0.0 0.00 0.00 0.00 81 1007.8
20260510071543 14 0 0.0 0.0 0.00 0.00 0.00 80 1007.9
20260510070041 14 0 0.0 0.0 0.00 0.00 0.00 79 1007.7
20260510064540 14 0 0.0 0.0 0.00 0.00 0.00 78 1008.0
20260510063126 14 0 0.0 0.0 0.00 0.00 0.00 78 1007.9
20260510063044 14 0 0.0 0.0 0.00 0.00 0.00 78 1007.9
20260510061543 15 0 0.0 0.0 0.00 0.00 0.00 76 1008.0
20260510060045 15 0 0.0 0.0 0.00 0.00 0.00 75 1007.9
20260510054542 15 0 0.0 0.0 0.00 0.00 0.00 75 1008.1
20260510053041 16 0 0.0 0.0 0.00 0.00 0.00 73 1007.9
20260510051552 17 0 0.0 0.0 0.00 0.00 0.00 67 1008.0
20260510050044 15 0 0.0 0.0 0.00 0.00 0.00 76 1007.8
20260510044547 14 0 0.0 0.0 0.00 0.00 0.00 78 1007.6
20260510043045 14 0 0.0 0.0 0.00 0.00 0.00 77 1007.3
20260510041543 14 0 0.0 0.0 0.00 0.00 0.00 79 1007.5
20260510040039 14 0 0.0 0.0 0.00 0.00 0.00 77 1007.6
20260510034538 15 0 0.0 0.0 0.00 0.00 0.00 77 1007.4
20260510033043 15 0 0.0 0.0 0.00 0.00 0.00 77 1007.3
20260510031543 15 0 0.0 0.0 0.00 0.00 0.00 74 1007.1
20260510030052 15 0 0.0 0.0 0.00 0.00 0.00 79 1006.8
20260510024542 15 0 0.0 0.0 0.00 0.00 0.00 75 1006.6
20260510023038 16 0 0.0 0.0 0.00 0.00 0.00 76 1006.5
20260510021544 16 0 0.0 0.0 0.00 0.00 0.00 75 1006.3
20260510020044 16 0 0.0 0.0 0.00 0.00 0.00 73 1006.0
20260510014545 17 0 0.0 0.0 0.00 0.00 0.00 72 1005.9
20260510013042 17 0 0.0 0.0 0.00 0.00 0.00 69 1005.7
20260510011546 18 0 0.0 0.0 0.00 0.00 0.00 67 1005.6
20260510010038 19 0 0.0 0.0 0.00 0.00 0.00 66 1005.4
20260510004550 20 0 0.0 0.0 0.00 0.00 0.00 67 1005.2
20260510003044 21 0 0.0 0.0 0.00 0.00 0.00 62 1005.0
20260510001542 23 0 0.0 0.0 0.00 0.00 0.00 63 1005.1
20260510000043 24 0 0.0 0.0 0.00 0.00 0.00 54 1004.9
20260509234543 25 0 0.0 0.0 0.00 0.00 0.00 44 1004.9
20260509233038 26 0 0.0 0.0 0.00 0.00 0.00 41 1004.7
20260509231545 26 0 0.0 0.0 0.00 0.00 0.00 40 1004.8
20260509230038 27 0 0.0 0.0 0.00 0.00 0.00 36 1004.7
20260509224543 26 0 0.0 0.0 0.00 0.00 0.00 30 1004.7
20260509223044 27 0 0.0 0.0 0.00 0.00 0.00 31 1004.6
20260509221542 27 0 0.0 0.0 0.00 0.00 0.00 31 1004.5
20260509220041 27 0 0.0 0.0 0.00 0.00 0.00 31 1004.5
20260509214548 27 0 0.0 0.0 0.00 0.00 0.00 30 1004.5
20260509213055 26 0 0.0 0.0 0.00 0.00 0.00 31 1004.5
20260509211543 27 0 0.0 0.0 0.00 0.00 0.00 28 1004.7
20260509210058 27 0 0.0 0.0 0.00 0.00 0.00 32 1004.7
20260509204543 28 0 0.0 0.0 0.00 0.00 0.00 34 1004.9
20260509203043 27 0 0.0 0.0 0.00 0.00 0.00 39 1004.9